When you browse on this site, cookies collect data to enhance your experience and personalize the content and advertising you see.
Visit our Privacy Policy to learn more. By continuing to use the site, you agree to this use of cookies and data.
  • In Latvia
  • List of Countries
  • For 7 days
  • Water Temperature
  • Weather Map
  • Weather Widgets
  • user-avatar
    Login

    Hourly Weather Rapperswil

    Today, 15 September, Sunday

    Time Temperature Precipitation Wind Pressure Humidity
    00:00 +19°C° 0 mm 1 mps 731 mmHg 95%
    01:00 +18°C° 0 mm 1 mps 731 mmHg 94%
    02:00 +16°C° 0 mm 0 mps 730 mmHg 94%
    03:00 +16°C° 0 mm 0 mps 730 mmHg 94%
    04:00 +15°C° 0 mm 0 mps 730 mmHg 94%
    05:00 +16°C° 0 mm 0 mps 730 mmHg 93%
    06:00 +16°C° 0 mm 0 mps 730 mmHg 92%
    07:00 +17°C° 0 mm 0 mps 730 mmHg 91%
    08:00 +21°C° 0 mm 1 mps 730 mmHg 83%
    09:00 +23°C° 0 mm 1 mps 730 mmHg 76%
    10:00 +26°C° 0 mm 1 mps 730 mmHg 68%
    11:00 +27°C° 0 mm 1 mps 730 mmHg 64%
    12:00 +28°C° 0 mm 1 mps 729 mmHg 60%
    13:00 +29°C° 0 mm 1 mps 729 mmHg 55%
    14:00 +29°C° 0 mm 1 mps 729 mmHg 56%
    15:00 +28°C° 0 mm 1 mps 729 mmHg 57%
    16:00 +28°C° 0 mm 1 mps 728 mmHg 58%
    17:00 +26°C° 0.1 mm 1 mps 728 mmHg 67%
    18:00 +24°C° 0.1 mm 1 mps 728 mmHg 76%
    19:00 +19°C° 0.1 mm 0 mps 728 mmHg 85%
    20:00 +21°C° 0 mm 1 mps 728 mmHg 86%
    21:00 +20°C° 0 mm 1 mps 728 mmHg 86%
    22:00 +20°C° 0 mm 1 mps 728 mmHg 87%
    23:00 +20°C° 0 mm 1 mps 728 mmHg 87%

    Tomorrow, 16 September, Monday

    Time Temperature Precipitation Wind Pressure Humidity
    00:00 +20°C° 0 mm 1 mps 728 mmHg 88%
    01:00 +19°C° 0 mm 1 mps 728 mmHg 88%
    02:00 +19°C° 0 mm 1 mps 727 mmHg 87%
    03:00 +19°C° 0 mm 1 mps 727 mmHg 87%
    04:00 +19°C° 0 mm 1 mps 727 mmHg 87%
    05:00 +19°C° 0 mm 1 mps 726 mmHg 86%
    06:00 +19°C° 0 mm 1 mps 726 mmHg 85%
    07:00 +17°C° 0 mm 0 mps 726 mmHg 84%
    08:00 +22°C° 0 mm 1 mps 726 mmHg 77%
    09:00 +24°C° 0 mm 1 mps 727 mmHg 69%
    10:00 +27°C° 0 mm 1 mps 727 mmHg 62%
    11:00 +27°C° 0 mm 1 mps 726 mmHg 59%
    12:00 +28°C° 0 mm 2 mps 726 mmHg 55%
    13:00 +29°C° 0 mm 2 mps 726 mmHg 52%
    14:00 +28°C° 0.2 mm 2 mps 725 mmHg 56%
    15:00 +28°C° 0.2 mm 2 mps 725 mmHg 60%
    16:00 +28°C° 0.2 mm 2 mps 725 mmHg 64%
    17:00 +25°C° 0.4 mm 1 mps 725 mmHg 72%
    18:00 +23°C° 0.4 mm 1 mps 725 mmHg 80%
    19:00 +19°C° 0.4 mm 0 mps 725 mmHg 89%
    20:00 +20°C° 0.1 mm 1 mps 725 mmHg 90%
    21:00 +20°C° 0.1 mm 1 mps 725 mmHg 91%
    22:00 +19°C° 0.1 mm 1 mps 725 mmHg 92%
    23:00 +19°C° 0 mm 1 mps 725 mmHg 93%

    Day after tomorrow, 17 September, Tuesday

    Time Temperature Precipitation Wind Pressure Humidity
    00:00 +18°C° 0 mm 1 mps 725 mmHg 93%
    01:00 +16°C° 0 mm 0 mps 725 mmHg 93%
    02:00 +15°C° 0 mm 0 mps 725 mmHg 93%
    03:00 +15°C° 0 mm 0 mps 724 mmHg 93%
    04:00 +15°C° 0 mm 0 mps 724 mmHg 94%
    05:00 +15°C° 0 mm 0 mps 724 mmHg 93%
    06:00 +15°C° 0 mm 0 mps 724 mmHg 93%
    07:00 +15°C° 0 mm 0 mps 724 mmHg 93%
    08:00 +17°C° 0 mm 0 mps 724 mmHg 89%
    09:00 +20°C° 0 mm 1 mps 724 mmHg 86%
    10:00 +21°C° 0 mm 1 mps 725 mmHg 82%
    11:00 +22°C° 0 mm 1 mps 724 mmHg 77%
    12:00 +23°C° 0 mm 1 mps 724 mmHg 73%
    13:00 +24°C° 0 mm 1 mps 724 mmHg 69%
    14:00 +23°C° 0 mm 2 mps 724 mmHg 69%
    15:00 +23°C° 0 mm 2 mps 723 mmHg 70%
    16:00 +23°C° 0 mm 2 mps 723 mmHg 71%
    17:00 +20°C° 0 mm 2 mps 723 mmHg 78%
    18:00 +19°C° 0 mm 2 mps 723 mmHg 85%
    19:00 +18°C° 0 mm 1 mps 723 mmHg 92%
    20:00 +18°C° 0 mm 1 mps 724 mmHg 91%
    21:00 +16°C° 0 mm 1 mps 724 mmHg 90%
    22:00 +16°C° 0 mm 1 mps 724 mmHg 89%
    23:00 +15°C° 0 mm 1 mps 724 mmHg 90%

    18 September, Wednesday

    Time Temperature Precipitation Wind Pressure Humidity
    00:00 +14°C° 0 mm 1 mps 724 mmHg 91%
    01:00 +13°C° 0 mm 1 mps 724 mmHg 92%
    02:00 +12°C° 0 mm 1 mps 724 mmHg 92%
    03:00 +12°C° 0 mm 1 mps 724 mmHg 93%
    04:00 +11°C° 0 mm 1 mps 724 mmHg 93%
    05:00 +11°C° 0 mm 1 mps 724 mmHg 93%
    06:00 +11°C° 0 mm 1 mps 724 mmHg 92%
    07:00 +11°C° 0 mm 1 mps 724 mmHg 92%
    08:00 +12°C° 0 mm 1 mps 724 mmHg 86%
    09:00 +14°C° 0 mm 1 mps 724 mmHg 80%
    10:00 +16°C° 0 mm 2 mps 724 mmHg 74%
    11:00 +17°C° 0 mm 2 mps 724 mmHg 70%
    12:00 +18°C° 0 mm 2 mps 724 mmHg 66%
    13:00 +19°C° 0 mm 3 mps 724 mmHg 62%
    14:00 +18°C° 0 mm 3 mps 724 mmHg 63%
    15:00 +18°C° 0 mm 3 mps 723 mmHg 65%
    16:00 +18°C° 0 mm 3 mps 723 mmHg 66%
    17:00 +16°C° 0 mm 3 mps 724 mmHg 72%
    18:00 +14°C° 0 mm 2 mps 724 mmHg 78%
    19:00 +12°C° 0 mm 2 mps 724 mmHg 84%
    20:00 +12°C° 0 mm 1 mps 725 mmHg 86%
    21:00 +11°C° 0 mm 1 mps 725 mmHg 88%
    22:00 +10°C° 0 mm 1 mps 725 mmHg 90%
    23:00 +10°C° 0 mm 1 mps 725 mmHg 91%

    19 September, Thursday

    Time Temperature Precipitation Wind Pressure Humidity
    00:00 +9°C° 0 mm 1 mps 725 mmHg 92%
    01:00 +8°C° 0 mm 1 mps 725 mmHg 93%
    02:00 +8°C° 0 mm 1 mps 725 mmHg 93%
    03:00 +7°C° 0 mm 1 mps 725 mmHg 93%
    04:00 +7°C° 0 mm 1 mps 725 mmHg 94%
    05:00 +7°C° 0 mm 1 mps 725 mmHg 93%
    06:00 +7°C° 0 mm 1 mps 725 mmHg 93%
    07:00 +7°C° 0 mm 1 mps 726 mmHg 92%
    08:00 +9°C° 0 mm 1 mps 726 mmHg 84%
    09:00 +10°C° 0 mm 2 mps 726 mmHg 75%
    10:00 +12°C° 0 mm 3 mps 727 mmHg 67%
    11:00 +13°C° 0 mm 3 mps 726 mmHg 62%
    12:00 +14°C° 0 mm 3 mps 726 mmHg 58%
    13:00 +15°C° 0 mm 4 mps 726 mmHg 53%
    14:00 +15°C° 0 mm 4 mps 726 mmHg 55%
    15:00 +14°C° 0 mm 4 mps 726 mmHg 57%
    16:00 +14°C° 0 mm 4 mps 726 mmHg 59%
    17:00 +12°C° 0 mm 4 mps 727 mmHg 66%
    18:00 +11°C° 0 mm 3 mps 727 mmHg 74%
    19:00 +9°C° 0 mm 3 mps 728 mmHg 81%
    20:00 +8°C° 0 mm 2 mps 728 mmHg 83%
    21:00 +7°C° 0 mm 2 mps 729 mmHg 86%
    22:00 +7°C° 0 mm 2 mps 729 mmHg 88%
    23:00 +7°C° 0 mm 1 mps 729 mmHg 89%

    20 September, Friday

    Time Temperature Precipitation Wind Pressure Humidity
    00:00 +6°C° 0 mm 1 mps 729 mmHg 90%
    01:00 +6°C° 0 mm 1 mps 729 mmHg 91%
    02:00 +6°C° 0 mm 1 mps 729 mmHg 90%
    03:00 +5°C° 0 mm 1 mps 729 mmHg 90%
    04:00 +5°C° 0 mm 1 mps 729 mmHg 89%
    05:00 +5°C° 0 mm 1 mps 729 mmHg 87%
    06:00 +6°C° 0 mm 1 mps 729 mmHg 85%
    07:00 +6°C° 0 mm 1 mps 729 mmHg 83%
    08:00 +8°C° 0 mm 1 mps 729 mmHg 73%
    09:00 +10°C° 0 mm 2 mps 729 mmHg 63%
    10:00 +14°C° 0 mm 2 mps 729 mmHg 53%
    11:00 +15°C° 0 mm 2 mps 729 mmHg 50%
    12:00 +16°C° 0 mm 3 mps 729 mmHg 47%
    13:00 +17°C° 0 mm 3 mps 729 mmHg 44%
    14:00 +17°C° 0 mm 3 mps 729 mmHg 47%
    15:00 +17°C° 0 mm 3 mps 729 mmHg 50%
    16:00 +17°C° 0 mm 2 mps 728 mmHg 53%
    17:00 +14°C° 0 mm 2 mps 728 mmHg 63%
    18:00 +12°C° 0 mm 1 mps 728 mmHg 73%
    19:00 +10°C° 0 mm 1 mps 728 mmHg 83%
    20:00 +9°C° 0 mm 1 mps 729 mmHg 84%
    21:00 +9°C° 0 mm 1 mps 729 mmHg 86%
    22:00 +8°C° 0 mm 1 mps 729 mmHg 88%
    23:00 +8°C° 0 mm 1 mps 729 mmHg 88%
    Show more